24-hrs_data_Kizahashi_2013.csv,,,,,,,,,,,,,,,,,,,,,,,
TIMESTAMP,Wind speed,Wind direction,Wind_Spd_Max,Wind_Spd_TMx,Wind_Dir_SMM,Air_Temp_Avg,Air_Temp_Max,Air_Temp_TMx,Air_Temp_Min,Air_Temp_TMn,Humidity_Avg,Humidity_Max,Humidity_TMx,Humidity_Min,Humidity_TMn,Solar radiation,PAR_Avg,UV_Wm2_Avg,Press_hPa_Avg,Press_hPa_Max,Press_hPa_TMx,Press_hPa_Min,Press_hPa_TMn
(yyyy/mm/dd hh:mm),(m/s),(degree),(m/s),(yyyy/mm/dd hh:mm),(degree),(��),(��),(yyyy/mm/dd hh:mm),(��),(yyyy/mm/dd hh:mm),(%),(%),(yyyy/mm/dd hh:mm),(%),(yyyy/mm/dd hh:mm),(W/m^2),(micro-mol/m^2/s),(W/m^2),(hPa),(hPa),(yyyy/mm/dd hh:mm),(hPa),(yyyy/mm/dd hh:mm)
,Avg,Avg,Max,TMx,SMM,Avg,Max,TMx,Min,TMn,Avg,Max,TMx,Min,TMn,Avg,Avg,Avg,Avg,Max,TMx,Min,TMn
2013/1/1 0:00,2.202,309.8,6.664,2012/12/31 14:23,220,2.928,6.937,2012/12/31 17:27,-0.909,2012/12/31 4:35,49.78,84.6,2012/12/31 1:00,28.9,2012/12/31 17:11,389.2007,668.4507,18.0572,991.711,993.7177,2012/12/31 0:50,990.7208,2012/12/31 13:59
2013/1/2 0:00,3.045,269.2,8.23,2013/1/1 23:45,72.22,3.807,5.897,2013/1/1 16:51,0.58,2013/1/1 3:46,40.51,69.94,2013/1/1 3:45,26.17,2013/1/1 21:31,364.2145,628.4333,17.47784,994.7869,995.9354,2013/1/1 23:54,992.8314,2013/1/1 0:00
2013/1/3 0:00,3.952,26.6,12.54,2013/1/2 3:02,72.71,3.521,7.311,2013/1/2 19:35,-0.791,2013/1/2 6:53,40.01,65.38,2013/1/2 1:13,21.36,2013/1/2 5:35,403.3722,666.2907,18.1444,994.2799,996.5562,2013/1/2 2:07,991.9624,2013/1/2 18:16
2013/1/4 0:00,3.341,7.315,8.23,2013/1/3 0:51,26.78,3.891,7.952,2013/1/3 21:39,-1.699,2013/1/3 3:02,36.5,62.58,2013/1/3 8:07,21.36,2013/1/3 10:39,402.7435,661.0592,18.00775,994.3145,996.0594,2013/1/3 23:53,993.204,2013/1/3 0:03
2013/1/5 0:00,3.394,5.945,10.49,2013/1/4 1:55,66.96,4.906,8.77,2013/1/4 13:26,-0.369,2013/1/4 4:13,43.2,70.07,2013/1/4 4:14,29.57,2013/1/4 15:41,387.3049,657.2158,17.85911,997.7013,999.1738,2013/1/4 9:16,995.3038,2013/1/4 23:45
2013/1/6 0:00,2.855,348.2,8.92,2013/1/5 6:43,56.93,3.406,7.752,2013/1/5 19:49,-1.547,2013/1/5 3:27,48.61,73.73,2013/1/5 3:33,29.44,2013/1/5 15:03,392.7718,655.0886,17.84569,989.6789,995.3145,2013/1/5 0:09,986.2606,2013/1/5 19:31
2013/1/7 0:00,3.025,26.43,9.02,2013/1/6 9:32,80.9,5.04,10.07,2013/1/6 16:25,0.66,2013/1/6 1:03,41.6,71.11,2013/1/6 23:44,24.65,2013/1/6 14:50,384.1375,650.2969,17.6209,987.9242,989.3964,2013/1/6 6:03,986.6173,2013/1/6 18:10
2013/1/8 0:00,3.83,36.04,11.27,2013/1/7 4:00,55.48,5.352,11.15,2013/1/7 16:44,-0.089,2013/1/7 2:16,42.98,69.72,2013/1/7 2:32,26.4,2013/1/7 18:17,384.5085,647.8008,17.54577,984.5222,986.995,2013/1/7 0:45,982.5215,2013/1/7 17:49
2013/1/9 0:00,3.524,42.03,8.92,2013/1/8 4:32,70.31,6.247,9.34,2013/1/8 21:42,0.995,2013/1/8 3:44,41.34,65.69,2013/1/8 22:49,31.52,2013/1/8 17:11,375.802,641.6949,17.37952,985.3055,986.1553,2013/1/8 10:29,984.0109,2013/1/8 20:25
2013/1/10 0:00,3.431,36.65,12.74,2013/1/9 4:32,76.05,6.32,9.4,2013/1/9 13:40,1.86,2013/1/9 23:34,43.47,71.31,2013/1/9 23:34,29.58,2013/1/9 11:04,366.3438,629.4947,17.14682,988.1988,990.9612,2013/1/9 23:38,984.6832,2013/1/9 0:04
2013/1/11 0:00,3.298,26.5,10.49,2013/1/10 3:26,89,4.458,9.47,2013/1/10 14:48,-1.382,2013/1/10 21:26,53.95,95.1,2013/1/10 21:25,30.75,2013/1/10 14:48,372.646,637.0607,17.14126,991.9424,993.8158,2013/1/10 23:32,990.837,2013/1/10 0:02
2013/1/12 0:00,2.899,250,6.566,2013/1/11 15:54,233.5,-0.878,1.494,2013/1/11 14:42,-2.321,2013/1/11 5:49,85.8,96,2013/1/11 2:27,72.47,2013/1/11 14:31,315.023,536.7151,15.29152,990.2654,993.7002,2013/1/11 0:06,986.9181,2013/1/11 23:20
2013/1/13 0:00,2.634,4.291,6.272,2013/1/12 15:09,26.79,-1.688,1.501,2013/1/12 7:43,-4.604,2013/1/12 4:49,86.4,99.7,2013/1/12 2:58,51.03,2013/1/12 7:44,354.7154,578.048,16.39553,987.7059,988.2511,2013/1/12 10:18,986.9921,2013/1/12 0:03
2013/1/14 0:00,2.522,267.1,6.37,2013/1/13 17:58,239.2,-0.953,2.826,2013/1/13 17:10,-3.262,2013/1/13 3:08,78.14,92.9,2013/1/13 2:59,51.01,2013/1/13 14:36,371.8735,608.4081,17.00029,986.7663,988.3754,2013/1/13 1:44,984.8563,2013/1/13 23:59
2013/1/15 0:00,3.464,6.257,11.07,2013/1/14 21:57,90.9,0.675,4.318,2013/1/14 20:10,-3.483,2013/1/14 5:02,46.15,87.6,2013/1/14 0:35,22.2,2013/1/14 22:29,382.8764,620.3372,16.77887,981.6589,984.8966,2013/1/14 4:08,977.3119,2013/1/14 21:45
2013/1/16 0:00,4.49,45.82,15.68,2013/1/15 4:07,68.91,1.646,5.057,2013/1/15 17:38,-2.108,2013/1/15 1:54,43.76,65.33,2013/1/15 23:52,29.52,2013/1/15 7:03,215.3767,410.5385,11.62966,977.0084,977.9653,2013/1/15 0:11,975.452,2013/1/15 18:13
2013/1/17 0:00,5.623,180.8,18.82,2013/1/16 21:12,92.3,3.369,7.481,2013/1/16 19:33,0.292,2013/1/16 1:33,47.99,77.22,2013/1/16 8:14,29.3,2013/1/16 20:36,279.666,510.4954,14.04969,979.7265,981.4178,2013/1/16 11:43,977.1907,2013/1/16 0:02
2013/1/18 0:00,7.631,69.72,22.34,2013/1/17 3:12,88.5,5.669,9.1,2013/1/17 17:25,1.533,2013/1/17 23:44,36.89,66.15,2013/1/17 23:39,28.81,2013/1/17 0:56,295.8412,545.8358,15.04647,983.6105,988.3618,2013/1/17 23:54,979.1742,2013/1/17 1:02
2013/1/19 0:00,4.006,8.88,13.62,2013/1/18 5:39,86.1,4.36,7.563,2013/1/18 15:32,0.328,2013/1/18 23:59,44.34,75.21,2013/1/18 22:13,30.83,2013/1/18 5:43,329.9413,570.7869,15.56945,988.3683,989.6636,2013/1/18 9:52,986.3752,2013/1/18 22:11
2013/1/20 0:00,3.993,278.8,10.19,2013/1/19 2:10,56.92,2.677,4.415,2013/1/19 12:37,-0.086,2013/1/19 3:05,46.55,71.98,2013/1/19 23:09,36.09,2013/1/19 9:07,341.7089,581.8757,15.79206,987.8931,989.3551,2013/1/19 23:57,986.251,2013/1/19 1:25
2013/1/21 0:00,3.237,281.9,7.448,2013/1/20 23:08,79.42,2.019,3.529,2013/1/20 18:25,-0.709,2013/1/20 1:11,49.96,72.51,2013/1/20 22:30,37.34,2013/1/20 8:07,258.4163,471.6306,13.39585,992.8047,994.8323,2013/1/20 23:45,989.3551,2013/1/20 0:00
2013/1/22 0:00,3.56,45.55,10.78,2013/1/21 11:26,59.34,2.452,5.82,2013/1/21 13:52,-1.451,2013/1/21 4:29,44.71,69.2,2013/1/21 1:08,27.8,2013/1/21 13:49,318.1831,534.2267,14.22452,991.0762,994.9504,2013/1/21 1:26,987.4927,2013/1/21 23:32
2013/1/23 0:00,4.632,61.03,15.97,2013/1/22 1:31,95.2,2.938,5.3,2013/1/22 21:22,0,2013/1/22 1:22,36.9,62.23,2013/1/22 1:22,26.56,2013/1/22 7:53,346.4153,563.708,15.01603,984.0052,987.7073,2013/1/22 0:39,979.9192,2013/1/22 21:00
2013/1/24 0:00,8.07,82.5,22.05,2013/1/23 1:36,88.5,2.343,5.811,2013/1/23 15:00,-0.495,2013/1/23 6:10,37.58,68.6,2013/1/23 19:02,26.76,2013/1/23 5:01,304.2415,500.1981,13.3021,977.8588,979.9226,2013/1/23 1:06,976.4482,2013/1/23 13:49
2013/1/25 0:00,9.65,81.3,24.6,2013/1/24 21:52,103.3,3.796,7.034,2013/1/24 12:47,0.045,2013/1/24 4:01,33.2,41.09,2013/1/24 7:28,26.25,2013/1/24 12:37,258.907,464.3969,12.3592,973.5242,978.8088,2013/1/24 0:51,967.1306,2013/1/24 22:10
2013/1/26 0:00,11.16,79.32,25.77,2013/1/25 8:59,90,4.432,7.712,2013/1/25 13:38,2.331,2013/1/25 4:30,35.22,65.3,2013/1/25 16:48,29.09,2013/1/25 8:20,240.093,430.2205,11.13592,971.9138,975.9484,2013/1/25 18:11,967.6272,2013/1/25 1:36
2013/1/27 0:00,4.242,47.86,17.74,2013/1/26 1:02,91.4,2.696,6.07,2013/1/26 15:04,-0.828,2013/1/26 6:03,40.65,71.31,2013/1/26 21:01,29.79,2013/1/26 5:25,275.1096,471.8256,13.03711,974.3674,975.9845,2013/1/26 0:15,972.9717,2013/1/26 15:17
2013/1/28 0:00,3.514,29.7,8.53,2013/1/27 3:13,73.2,2.284,5.367,2013/1/27 11:48,-1.491,2013/1/27 5:02,47.54,74.04,2013/1/27 5:10,33.63,2013/1/27 11:47,335.5836,549.4054,14.14534,979.5641,983.0231,2013/1/27 23:59,975.6994,2013/1/27 0:05
2013/1/29 0:00,2.697,32.92,9.11,2013/1/28 1:19,69.37,1.331,3.994,2013/1/28 13:10,-1.242,2013/1/28 8:09,61.29,90.6,2013/1/28 8:14,41.23,2013/1/28 0:11,187.5919,347.9936,9.811705,988.8969,994.2859,2013/1/29 0:00,983.0231,2013/1/28 0:00
2013/1/30 0:00,3.129,18.25,7.84,2013/1/29 4:03,72.27,1.14,4.788,2013/1/29 12:20,-1.201,2013/1/29 4:22,52.94,72.5,2013/1/29 21:28,38.96,2013/1/29 12:18,278.8979,470.1111,13.06872,992.601,995.3328,2013/1/29 4:17,987.158,2013/1/29 23:58
2013/1/31 0:00,3.215,340.9,11.56,2013/1/30 7:42,73.23,0.405,2.954,2013/1/30 12:14,-2.243,2013/1/30 23:59,46.11,67.12,2013/1/30 1:23,22.99,2013/1/30 10:15,298.3312,493.142,12.89245,979.9734,987.21,2013/1/30 0:10,976.1945,2013/1/30 20:48
2013/2/1 0:00,3.278,311.5,7.84,2013/1/31 3:52,54.56,-2.019,0.269,2013/1/31 15:57,-4.066,2013/1/31 23:45,44.24,77.33,2013/1/31 22:15,28.99,2013/1/31 8:10,323.6432,512.526,13.55348,978.2385,983.9027,2013/1/31 23:51,975.827,2013/1/31 3:53
2013/2/2 0:00,2.459,265.2,5.194,2013/2/1 11:43,246.1,-3.119,-1.079,2013/2/1 15:21,-5.556,2013/2/1 5:21,67.31,86.6,2013/2/1 23:40,51.28,2013/2/1 19:32,321.3303,508.6372,13.56474,989.0341,990.9846,2013/2/1 17:00,983.9027,2013/2/1 0:00
2013/2/3 0:00,2.272,308.8,6.174,2013/2/2 18:50,221.1,-3.242,-0.58,2013/2/2 14:36,-5.639,2013/2/2 5:13,63.2,88.5,2013/2/2 0:07,44.42,2013/2/2 21:25,286.9255,457.5321,12.70434,985.812,990.7359,2013/2/2 0:00,980.6725,2013/2/2 23:53
2013/2/4 0:00,3.04,310.6,7.644,2013/2/3 20:17,221.1,-1.242,1.04,2013/2/3 14:15,-3.567,2013/2/3 0:08,56.07,91,2013/2/3 23:31,39.28,2013/2/3 8:47,260.9427,446.1678,11.59441,980.9429,981.9149,2013/2/3 22:49,979.6855,2013/2/3 4:09
2013/2/5 0:00,2.139,283,5.782,2013/2/4 8:03,57.44,-0.959,1.159,2013/2/4 12:42,-2.238,2013/2/4 22:48,87.7,97.2,2013/2/4 23:22,69.95,2013/2/4 12:58,143.407,277.9056,8.043111,981.1346,982.536,2013/2/4 3:23,978.8091,2013/2/4 23:56
2013/2/6 0:00,1.66,344.6,5.782,2013/2/5 19:04,235.9,-1.023,1.047,2013/2/5 16:27,-2.962,2013/2/5 5:51,83.4,96.1,2013/2/5 1:00,56.46,2013/2/5 23:30,126.5273,255.9435,7.026263,976.2041,978.9333,2013/2/5 0:01,973.9637,2013/2/5 19:39
2013/2/7 0:00,2.439,249.5,5.88,2013/2/6 14:04,238.9,-0.998,0.832,2013/2/6 17:34,-2.364,2013/2/6 22:10,71.08,87.4,2013/2/6 10:29,50.74,2013/2/6 6:31,196.9408,358.2675,10.19201,974.9998,977.194,2013/2/6 23:32,973.6328,2013/2/6 5:12
2013/2/8 0:00,2.361,322.7,6.272,2013/2/7 16:46,238.4,-2.478,0.473,2013/2/7 18:17,-4.146,2013/2/7 5:02,62.09,83,2013/2/7 21:40,41.87,2013/2/7 14:42,154.1632,288.659,8.103528,979.9988,982.2878,2013/2/7 23:38,977.194,2013/2/7 0:00
2013/2/9 0:00,2.58,131.2,7.35,2013/2/8 20:33,17.23,-1.378,1.999,2013/2/8 19:01,-3.732,2013/2/8 3:17,54.53,89.1,2013/2/8 22:25,33.85,2013/2/8 7:11,166.6661,288.3995,7.787985,985.2028,986.2635,2013/2/8 14:57,982.2878,2013/2/8 0:00
2013/2/10 0:00,4.791,70.46,12.05,2013/2/9 12:39,71.81,0.523,1.955,2013/2/9 16:06,-1.155,2013/2/9 0:14,44.21,87,2013/2/9 0:04,33.2,2013/2/9 18:37,69.92507,153.7412,4.546196,982.8141,985.8908,2013/2/9 0:00,979.9272,2013/2/9 21:39
2013/2/11 0:00,2.115,239.8,5.88,2013/2/10 14:08,226.4,-0.517,1.086,2013/2/10 13:49,-2.361,2013/2/10 21:43,69.03,91.9,2013/2/10 21:17,41.97,2013/2/10 0:25,115.4688,234.3978,6.693017,984.2527,990.2392,2013/2/10 23:47,979.9272,2013/2/10 0:01
2013/2/12 0:00,7.58,70.22,34.2,2013/2/11 23:24,107.7,0.224,2.336,2013/2/11 15:50,-2.486,2013/2/11 3:20,53.07,96,2013/2/11 3:55,28.66,2013/2/11 10:34,139.6385,254.9803,6.838632,981.4136,990.3946,2013/2/11 2:24,968.7456,2013/2/11 23:51
2013/2/13 0:00,17.11,78.63,34.3,2013/2/12 0:24,83.8,0.408,1.252,2013/2/12 19:44,-1.323,2013/2/12 4:22,44.39,51.95,2013/2/12 5:05,37.82,2013/2/12 2:30,73.21394,167.7188,4.766192,974.4477,984.3837,2013/2/12 23:54,968.7456,2013/2/12 0:16
2013/2/14 0:00,3.694,255.5,21.07,2013/2/13 0:46,93.8,-0.621,1.164,2013/2/13 18:58,-2.846,2013/2/13 21:28,66.39,91.1,2013/2/13 5:11,39.24,2013/2/13 3:38,137.7393,257.0327,7.411009,992.2493,994.8361,2013/2/13 16:22,984.1417,2013/2/13 0:02
2013/2/15 0:00,2.526,326.6,7.154,2013/2/14 18:37,226.8,-2.646,-0.118,2013/2/14 12:45,-5.136,2013/2/14 5:48,49.01,75.37,2013/2/14 0:14,31.41,2013/2/14 21:05,257.6012,414.7048,10.514,990.2917,994.3391,2013/2/14 0:00,987.5059,2013/2/14 19:45
2013/2/16 0:00,3.409,61.77,10.19,2013/2/15 18:49,65.08,0.227,4.412,2013/2/15 19:01,-3.484,2013/2/15 0:37,39.97,79.09,2013/2/15 23:53,24.03,2013/2/15 18:34,210.8355,358.0593,9.339767,977.5892,987.7544,2013/2/15 0:15,968.472,2013/2/15 20:00
2013/2/17 0:00,4.643,55.63,17.64,2013/2/16 1:11,87.6,1.537,4.281,2013/2/16 17:14,-1.497,2013/2/16 5:25,42.3,85.3,2013/2/16 5:29,30.97,2013/2/16 14:18,199.348,341.0341,8.774324,971.2527,976.1998,2013/2/17 0:00,967.8757,2013/2/16 1:17
2013/2/18 0:00,5.317,65.11,15.58,2013/2/17 2:01,90.5,-1.791,0.681,2013/2/17 14:30,-4.001,2013/2/17 4:40,36.41,57.86,2013/2/17 19:51,26.46,2013/2/17 6:26,248.4768,392.2079,9.865515,977.5223,979.5543,2013/2/17 23:56,975.9513,2013/2/17 0:01
2013/2/19 0:00,3.851,59.48,8.92,2013/2/18 2:18,61.75,-2.501,0.26,2013/2/18 12:01,-5.429,2013/2/18 4:03,38,54.24,2013/2/18 14:19,28.42,2013/2/18 12:03,243.1455,383.3076,9.629907,984.5718,991.3574,2013/2/18 23:48,979.5543,2013/2/18 0:00
2013/2/20 0:00,2.572,109.1,6.272,2013/2/19 0:20,67.97,-2.618,-0.95,2013/2/19 14:07,-4.641,2013/2/19 5:40,49.98,73.97,2013/2/19 23:45,37.93,2013/2/19 8:07,151.86,264.5752,7.009634,993.6968,995.9637,2013/2/19 12:08,990.4951,2013/2/19 23:34
2013/2/21 0:00,3.508,145.1,9.9,2013/2/20 3:03,83.8,0.145,2.372,2013/2/20 18:58,-2.359,2013/2/20 0:15,53.74,94.7,2013/2/20 23:31,33.61,2013/2/20 8:53,128.6126,232.2194,6.224999,979.2581,990.4951,2013/2/20 0:00,966.2608,2013/2/20 23:59
2013/2/22 0:00,2.349,26.7,12.45,2013/2/21 23:47,51.68,1.177,4.413,2013/2/21 13:58,-0.983,2013/2/21 0:01,64.13,91.8,2013/2/21 0:01,36.73,2013/2/21 19:11,183.0385,320.7875,8.459776,970.9248,976.0866,2013/2/21 23:19,965.2668,2013/2/21 1:31
2013/2/23 0:00,3.091,353.5,13.92,2013/2/22 0:15,84.7,-0.459,1.083,2013/2/22 0:13,-1.829,2013/2/22 23:39,70.21,86.5,2013/2/22 11:08,43.94,2013/2/22 0:05,79.0653,158.7979,4.55668,979.1913,984.2754,2013/2/22 23:56,975.6995,2013/2/22 0:00
2013/2/24 0:00,1.85,38.85,12.45,2013/2/23 23:41,98.1,-0.672,1.501,2013/2/23 23:17,-2.119,2013/2/23 9:55,78.18,94.6,2013/2/23 19:54,53.94,2013/2/23 23:17,44.06147,96.60284,3.033854,989.404,991.2408,2013/2/23 14:07,984.2754,2013/2/23 0:00
2013/2/25 0:00,3.456,254.8,13.13,2013/2/24 4:54,47.4,1.022,3.546,2013/2/24 15:29,-1.155,2013/2/24 9:05,64.94,98.7,2013/2/24 23:39,44.05,2013/2/24 15:47,108.3982,206.6569,5.932806,989.259,991.8622,2013/2/24 8:00,985.8908,2013/2/24 23:29
2013/2/26 0:00,2.91,215.8,13.13,2013/2/25 4:18,78.5,0.212,2.695,2013/2/25 4:58,-0.951,2013/2/25 1:16,93,99.4,2013/2/25 17:53,55.35,2013/2/25 5:04,43.39759,107.5608,3.405504,985.259,986.5171,2013/2/25 23:59,984.3999,2013/2/25 4:44
2013/2/27 0:00,1.783,166.8,7.35,2013/2/26 14:47,140.7,-0.269,1.844,2013/2/26 9:58,-1.515,2013/2/26 19:56,83.7,96.9,2013/2/26 1:20,55.5,2013/2/26 10:00,82.66743,188.9345,5.650331,988.9661,990.6416,2013/2/26 22:39,986.4575,2013/2/26 0:09
2013/2/28 0:00,2.769,106.1,11.66,2013/2/27 22:58,47.87,-1.054,0.879,2013/2/27 14:15,-2.834,2013/2/27 9:37,64.99,90.9,2013/2/27 0:32,35.56,2013/2/27 20:48,128.9716,247.6157,7.167808,989.2002,990.7174,2013/2/27 0:56,988.1271,2013/2/27 22:47
2013/3/1 0:00,6.156,68.86,19.99,2013/2/28 13:45,43.09,0.269,3.208,2013/2/28 14:06,-2.644,2013/2/28 4:17,37.31,52.04,2013/2/28 19:21,29.74,2013/2/28 11:44,181.5972,317.7073,8.144134,980.9644,988.4606,2013/2/28 0:03,974.088,2013/2/28 23:36
2013/3/2 0:00,5.116,63.64,11.47,2013/3/1 22:58,42.12,0.668,3.288,2013/3/1 16:15,-1.862,2013/3/1 5:08,40.03,61.08,2013/3/1 3:45,32.76,2013/3/1 23:26,133.0368,233.7069,6.323849,973.3653,976.4485,2013/3/1 23:42,972.2246,2013/3/1 13:34
2013/3/3 0:00,3.473,49.7,8.72,2013/3/2 21:05,76.58,-2.105,0.132,2013/3/2 12:51,-4.893,2013/3/2 23:56,45.66,65.4,2013/3/2 13:52,33.95,2013/3/2 10:22,165.8791,271.3831,7.286342,979.7724,982.1636,2013/3/2 23:47,976.4485,2013/3/2 0:00
2013/3/4 0:00,3.954,57.83,8.92,2013/3/3 12:46,20.11,-5.61,-4.481,2013/3/3 0:28,-7.004,2013/3/3 23:58,46.04,68.13,2013/3/3 15:30,33.93,2013/3/3 9:23,66.80693,128.3625,3.784148,982.5594,982.9188,2013/3/3 13:06,982.1636,2013/3/3 0:00
2013/3/5 0:00,4.224,54.68,9.7,2013/3/4 8:23,73.77,-7.958,-5.595,2013/3/4 14:17,-10.19,2013/3/4 23:14,41.63,55.74,2013/3/4 18:15,30.02,2013/3/4 10:22,158.8511,250.749,6.681894,983.1734,984.6595,2013/3/4 23:05,982.4386,2013/3/4 6:01
2013/3/6 0:00,2.728,229.2,9.11,2013/3/5 1:11,82.9,-7.793,-5.347,2013/3/5 17:48,-11.27,2013/3/5 7:42,71.84,92.7,2013/3/5 22:07,40.07,2013/3/5 1:11,44.53251,97.74023,2.984708,984.5201,986.033,2013/3/5 22:45,983.2969,2013/3/5 6:38
2013/3/7 0:00,3.407,55.12,8.43,2013/3/6 11:13,45.51,-5.395,-2.888,2013/3/6 14:21,-9.78,2013/3/6 23:59,51.77,88.4,2013/3/6 2:05,32.45,2013/3/6 14:26,163.6514,257.3961,7.077863,983.5653,986.033,2013/3/6 0:31,981.4653,2013/3/6 19:52
2013/3/8 0:00,2.633,236.8,6.076,2013/3/7 16:43,164.3,-6.311,-2.48,2013/3/7 17:40,-11.97,2013/3/7 0:27,80.7,92.7,2013/3/7 11:56,61.55,2013/3/7 1:27,92.65313,177.2167,5.25979,981.8829,982.6703,2013/3/7 23:38,981.4314,2013/3/7 5:19
2013/3/9 0:00,1.741,287.7,6.272,2013/3/8 17:18,220.3,-5.957,-4.183,2013/3/8 13:45,-9.05,2013/3/8 23:41,81.9,90.8,2013/3/8 11:41,68.56,2013/3/8 18:18,80.82139,151.5222,4.765242,988.5026,997.2162,2013/3/8 23:56,982.6703,2013/3/8 0:00
2013/3/10 0:00,2.541,282.7,10.09,2013/3/9 17:24,47.88,-6.037,-1.113,2013/3/9 15:43,-10.14,2013/3/9 7:50,55.75,86.4,2013/3/9 4:32,24.75,2013/3/9 19:27,158.0758,247.3279,6.638479,993.9943,999.7133,2013/3/9 4:37,981.5513,2013/3/9 23:54
2013/3/11 0:00,2.163,50.32,8.43,2013/3/10 0:03,67.04,-6.051,-1.98,2013/3/10 14:15,-10.94,2013/3/10 22:14,46.35,79.47,2013/3/10 22:16,26.17,2013/3/10 5:07,126.3106,206.497,5.800745,977.3627,981.6755,2013/3/10 0:02,975.0865,2013/3/10 13:15
2013/3/12 0:00,2.539,250.1,6.076,2013/3/11 20:30,240.9,-11.5,-7.554,2013/3/11 0:08,-14.17,2013/3/11 17:54,74.49,84.6,2013/3/11 23:32,58.02,2013/3/11 15:10,130.2577,207.472,5.826525,984.6014,986.9827,2013/3/11 20:24,979.0648,2013/3/11 0:00
2013/3/13 0:00,2.421,34.99,9.8,2013/3/12 23:18,28.26,-6.952,-2.728,2013/3/12 15:33,-13.62,2013/3/12 3:59,52.43,83.1,2013/3/12 0:05,26.71,2013/3/12 18:57,89.12475,160.3106,4.669743,986.596,987.2364,2013/3/12 13:11,985.0327,2013/3/12 23:35
2013/3/14 0:00,4.686,56.76,22.64,2013/3/13 23:59,78.52,-3.37,-0.491,2013/3/13 19:17,-7.295,2013/3/13 0:15,52.29,87.4,2013/3/13 15:39,29.21,2013/3/13 2:07,88.54852,158.6009,4.313502,980.0402,985.4237,2013/3/13 0:11,972.7244,2013/3/13 23:37
2013/3/15 0:00,8.21,82.3,24.4,2013/3/14 4:41,71.34,-0.983,0.799,2013/3/14 14:53,-3.188,2013/3/14 22:55,61.84,95.9,2013/3/14 22:52,42.89,2013/3/14 14:57,29.88668,68.57516,1.936009,978.4801,984.654,2013/3/14 22:03,972.4735,2013/3/14 1:29
2013/3/16 0:00,3.17,203,17.54,2013/3/15 23:59,98.6,-2.276,-0.034,2013/3/15 23:50,-4.06,2013/3/15 7:11,72.34,90.4,2013/3/15 4:15,52.36,2013/3/15 23:51,68.55189,142.2092,4.278782,983.3887,985.1802,2013/3/15 2:31,978.29,2013/3/15 23:59
2013/3/17 0:00,10.83,73.21,25.58,2013/3/16 11:59,90.5,0.263,1.713,2013/3/16 14:01,-1.03,2013/3/16 23:45,43.01,57.69,2013/3/16 0:02,36.61,2013/3/16 16:31,19.2368,52.43749,1.597667,974.4924,978.4338,2013/3/16 0:05,971.6044,2013/3/16 13:58
2013/3/18 0:00,8.96,71.95,23.42,2013/3/17 1:14,74.21,-0.902,0.216,2013/3/17 14:30,-1.983,2013/3/17 7:45,46.43,55.16,2013/3/17 21:35,41.2,2013/3/17 0:26,53.53957,106.9445,2.964874,982.8877,986.0211,2013/3/17 20:29,976.3271,2013/3/17 0:01
2013/3/19 0:00,2.566,104.5,11.86,2013/3/18 0:00,68.94,-4.312,-0.242,2013/3/18 0:11,-16.44,2013/3/18 23:41,73.39,93.5,2013/3/18 5:36,43.73,2013/3/18 0:02,53.6796,114.3822,3.878684,982.028,985.8969,2013/3/18 0:50,976.2053,2013/3/18 23:59
2013/3/20 0:00,3.008,48.3,9.7,2013/3/19 18:25,84.3,-8.86,-4.847,2013/3/19 23:21,-17.81,2013/3/19 5:03,63.64,89,2013/3/19 0:10,40.58,2013/3/19 2:04,72.21047,133.1402,4.108655,975.2468,976.2053,2013/3/19 0:00,973.5966,2013/3/19 23:21
2013/3/21 0:00,7.527,71.74,24.21,2013/3/20 9:27,61.79,-2.898,-0.57,2013/3/20 12:50,-6.421,2013/3/20 0:28,53.82,94.1,2013/3/20 0:41,32.72,2013/3/20 12:52,24.31755,54.58556,1.667085,970.0751,973.5966,2013/3/20 0:00,968.3732,2013/3/20 9:13
2013/3/22 0:00,4.43,61.33,13.92,2013/3/21 21:53,75.64,-1.254,0.383,2013/3/21 14:32,-3.727,2013/3/21 0:50,63.36,94.5,2013/3/21 6:26,36.85,2013/3/21 21:55,50.90005,103.1035,3.192078,975.6644,980.3008,2013/3/21 20:35,970.2379,2013/3/21 0:02
2013/3/23 0:00,1.803,50.14,9.21,2013/3/22 0:08,57.93,-3.245,-0.801,2013/3/22 13:19,-5.302,2013/3/22 23:59,73.04,88.8,2013/3/22 6:26,44.4,2013/3/22 0:35,63.45316,123.2668,3.612694,978.6107,979.67,2013/3/22 0:03,978.0673,2013/3/22 17:58
2013/3/24 0:00,2.258,75.95,11.17,2013/3/23 22:57,58.43,-5.826,-3.331,2013/3/23 15:33,-10.4,2013/3/23 19:24,78.77,95.4,2013/3/23 14:32,53.67,2013/3/24 0:00,54.57043,115.7237,3.463436,975.9385,979.0648,2013/3/23 1:47,965.7657,2013/3/24 0:00
2013/3/25 0:00,3.493,198.5,16.95,2013/3/24 5:02,116.4,-5.315,-2.356,2013/3/24 21:38,-11.15,2013/3/24 8:32,69.72,96,2013/3/24 19:24,42.17,2013/3/24 2:52,40.96013,87.12492,2.808895,957.6705,965.7891,2013/3/24 0:02,952.4541,2013/3/24 7:58
2013/3/26 0:00,3.153,30.68,21.36,2013/3/25 0:34,87.2,-9.23,-3.022,2013/3/25 0:14,-13.47,2013/3/25 17:45,76.4,91.4,2013/3/25 21:06,54.65,2013/3/25 23:55,78.74876,124.7785,3.752815,980.711,988.769,2013/3/25 22:36,965.4041,2013/3/25 0:00
2013/3/27 0:00,9.91,79.97,26.07,2013/3/26 15:40,103,-4.538,-2.047,2013/3/26 20:54,-7.419,2013/3/26 0:07,59.84,75.81,2013/3/26 9:59,50.43,2013/3/26 20:55,25.35189,57.49163,1.761795,981.5768,989.5153,2013/3/26 4:01,973.3479,2013/3/26 19:32
2013/3/28 0:00,6.729,62.52,17.84,2013/3/27 0:38,70.89,-2.704,-1.634,2013/3/27 15:06,-3.891,2013/3/27 9:29,68.56,92.3,2013/3/27 22:35,54.64,2013/3/27 7:41,21.27584,47.75974,1.419693,975.6809,976.7028,2013/3/27 11:54,974.2166,2013/3/27 2:25
2013/3/29 0:00,3.995,62.06,9.41,2013/3/28 23:32,95.3,-2.777,-1.683,2013/3/28 15:21,-4.629,2013/3/28 8:51,72.4,92.8,2013/3/28 8:55,57.74,2013/3/28 22:15,36.8061,74.39376,2.120787,975.2998,976.0811,2013/3/28 14:22,974.4649,2013/3/28 23:27
2013/3/30 0:00,5.114,45.78,11.76,2013/3/29 2:40,56.99,-3.27,-1.773,2013/3/29 13:14,-7.671,2013/3/29 23:59,75.86,97.4,2013/3/29 20:49,57.91,2013/3/29 2:26,39.07286,77.3622,2.220436,973.7464,977.946,2013/3/29 23:57,972.3514,2013/3/29 9:39
2013/3/31 0:00,5.756,35.48,13.62,2013/3/30 11:02,351.5,-3.648,-0.562,2013/3/30 18:49,-9.2,2013/3/30 1:13,90.7,96.7,2013/3/30 4:03,68.03,2013/3/30 0:36,24.50163,60.06628,1.975048,970.0908,978.319,2013/3/30 1:00,960.4163,2013/3/30 23:47
2013/4/1 0:00,3.348,31.26,8.82,2013/3/31 0:19,21.07,-4.982,-1.029,2013/3/31 0:20,-12.6,2013/3/31 23:32,90.9,98.5,2013/3/31 5:02,74.94,2013/3/31 20:28,32.86909,78.44696,2.625843,968.0274,983.4163,2013/3/31 23:59,959.6703,2013/3/31 3:29
2013/4/2 0:00,4.556,62.57,13.52,2013/4/1 23:28,102,-8.92,-3.227,2013/4/1 14:02,-16.94,2013/4/1 5:14,75.24,87.4,2013/4/1 5:58,57.02,2013/4/1 17:17,27.93711,67.89291,2.255654,985.5897,989.215,2013/4/1 6:14,979.1929,2013/4/1 23:57
2013/4/3 0:00,4.275,127.6,16.27,2013/4/2 3:50,65.14,-4.269,-2.523,2013/4/2 8:14,-6.291,2013/4/2 20:09,75.98,94.2,2013/4/2 20:27,49.79,2013/4/2 8:14,35.0891,73.9309,2.401873,973.489,979.3172,2013/4/2 0:06,970.2379,2013/4/2 23:46
2013/4/4 0:00,5.533,68.96,17.35,2013/4/3 22:48,97.2,-4.149,-2.94,2013/4/3 13:05,-6.519,2013/4/3 0:26,64.48,92.5,2013/4/3 0:29,52.98,2013/4/3 12:02,35.50329,74.40564,2.272834,969.2253,971.4811,2013/4/3 23:11,968,2013/4/3 8:14
2013/4/5 0:00,6.515,79.34,19.89,2013/4/4 4:26,90.5,-5.282,-4.268,2013/4/4 9:45,-6.257,2013/4/4 16:39,75.11,95.6,2013/4/4 16:07,55.11,2013/4/4 9:45,18.94757,43.50857,1.436193,977.9833,985.1829,2013/4/4 23:54,971.3568,2013/4/4 0:00
2013/4/6 0:00,5.769,75.35,11.47,2013/4/5 9:46,52.21,-5.619,-4.268,2013/4/5 12:37,-7.502,2013/4/5 19:45,59.76,78.32,2013/4/5 3:10,44.59,2013/4/5 22:18,49.55686,85.75855,2.506066,991.4434,997.1016,2013/4/5 23:57,985.1571,2013/4/5 0:16
2013/4/7 0:00,3.048,59.94,9.9,2013/4/6 0:43,82.4,-8.12,-5.17,2013/4/6 2:13,-17.03,2013/4/6 23:49,47.49,66.73,2013/4/6 23:51,33.43,2013/4/6 10:23,59.9558,92.20086,2.541715,998.8969,1000.172,2013/4/6 13:49,996.9772,2013/4/6 0:02
2013/4/8 0:00,2.548,18.2,8.23,2013/4/7 22:16,72.35,-14.08,-9,2013/4/7 13:02,-21.24,2013/4/7 5:01,51.14,79.22,2013/4/7 2:52,28.82,2013/4/7 22:12,60.08983,87.50396,2.429216,992.4606,997.3503,2013/4/7 0:00,990.8912,2013/4/7 14:57
2013/4/9 0:00,2.877,255.7,8.23,2013/4/8 20:37,59.44,-16.47,-11.03,2013/4/8 19:00,-22.58,2013/4/8 5:56,60.56,81.2,2013/4/8 8:31,34.66,2013/4/8 1:03,51.34218,77.72185,2.302482,987.1517,992.1353,2013/4/8 0:09,981.9384,2013/4/8 20:48